Location: Caltech
(34.1382°N, 118.1253°W)
Time: 09:25:16
(UTC-07:00)

BREEZE M DEB (TANK) - Visible Passes

Search period start: 28 July 2014 00:00
Search period end: 07 August 2014 00:00
Orbit: 344 x 13827 km, 49.6° (Epoch: 26 July)

Date Brightness Start Highest point End Pass type
(mag) Time Alt. Az. Time Alt. Az. Time Alt. Az.
28 Jul 8.3 19:18:05 10° NW 19:36:46 68° SW 21:12:51 10° SSE visible
29 Jul 9.3 21:20:31 10° WNW 21:46:53 35° WSW 23:07:59 10° SSW visible
30 Jul 8.2 18:47:19 10° NW 19:04:19 73° SW 20:37:31 10° SSE visible
31 Jul 9.2 20:48:57 10° WNW 21:13:54 39° WSW 22:37:47 10° S visible
01 Aug 8.0 18:16:35 10° NW 18:32:01 78° SW 20:01:23 10° SSE visible
01 Aug 9.8 23:10:26 10° W 23:23:03 11° WSW 23:39:47 10° WSW visible
02 Aug 9.0 20:17:33 10° WNW 20:40:54 43° SW 22:06:32 10° S visible
03 Aug 9.7 22:30:52 10° W 22:50:36 15° WSW 23:23:57 10° SW visible
04 Aug 8.9 19:46:14 10° WNW 20:07:54 47° SW 21:34:21 10° S visible
05 Aug 9.7 21:55:29 10° W 22:17:56 18° WSW 23:02:28 10° SW visible
06 Aug 8.8 19:15:01 10° WNW 19:34:57 50° SW 21:01:17 10° S visible
